Charter Quote
Worldwide +1-877-727-2538 Call
Select Language Lang
SAFETY RELIABILITY EXPERIENCE

Private Jet Charter Services - Meixian Airport (ZGMX)

Paramount Business Jets offers private jet charter flights and luxury airliner charters to and from Meixian Airport.

AIRPORT INFORMATION
ICAOZGMX
IATAMXZ
LOCATIONMeixian, China
FACILITY TYPEAIRPORT

At Paramount Business Jets you can hire chartered private jets to and from Meixian Airport with as little as 4 hours of notice. All flights booked via Paramount Business Jets are operated by certified direct air carriers that meet and exceed the FAA part 135 and 121 protocol or a foreign equivalent safety authority. Furthermore, Paramount Business Jets subscribes to ARGUS for their third party safety checks of operators, aircraft, and crews prior each and every flight to and from Meixian Airport and worldwide.

  • Quote a trip using Meixian Airport or call us 24/7 - 365 days a year at +1-877-727-2538.
Questions? Call +1-877-727-2538

METAR Weather Data at Meixian Airport, ZGMX, MXZ

STATIONZGMX
OBSERVEDFri Aug 23, 11:00 UTC
NOWThu Nov 14, 16:43 UTC
AGE1997:43 hr ago
WINDvaries at 2 mph
VISIBILITY16 miles
CLOUDSmostly cloudy
TEMP90°F (32°C)
DEWPT79°F (26°C)
HUMIDITY71%
HEAT INDEX107°F (42°C)
BAROMETER1004 hPa (29.65 in Hg)
METARZGMX 231100Z VRB01MPS 9999 BKN023 32/26 Q1004 NOSIG

Call us on +1-877-727-2538 (24 Hours), Check our Pricing, or Get a Quick Quote.

Find Airports Near any Location

Processing
...